Doylestown, PA

4:43 PM EST on December 06, 2019 (GMT -0500)
Doylestown

Weather History for KDYL - October, 2019

Change the Weather History Date:

Tuesday, October 29, 2019

  Actual Average (WUND) Record (WUND)
Temperature  
Mean Temperature 58 °F -  
Max Temperature 63 °F - - (-1)
Min Temperature 54 °F - - (-1)
Degree Days  
Heating Degree Days 7    
Growing Degree Days 8 (Base 50)    
Moisture  
Dew Point 55 °F    
Average Humidity 89    
Maximum Humidity 97    
Minimum Humidity 80    
Precipitation  
Precipitation 0.02 in - - ()
Sea Level Pressure  
Sea Level Pressure 30.26 in    
Wind  
Wind Speed 0 mph (NNE)    
Max Wind Speed 7 mph    
Max Gust Speed -    
Visibility 7 miles    
Events Fog , Rain    
Averages and records for this station are not official NWS values.
T = Trace of Precipitation, MM = Missing Value Source: NWS Daily Summary

Daily Weather History Graph

Daily Weather History Graph

Search for Another Location

Airport or City:

Astronomy

Oct. 29, 2019 Rise Set
Actual Time 7:26 AM EDT 6:01 PM EDT
Civil Twilight 6:58 AM EDT 6:29 PM EDT
Nautical Twilight 6:26 AM EDT 7:01 PM EDT
Astronomical Twilight 5:54 AM EDT 7:33 PM EDT
Moon 8:57 AM EDT (10/29) 7:23 PM EDT (10/29)
Length of Visible Light 11h 31m
Length of Day
10h 35m
Waxing Crescent, 3% of the Moon is Illuminated
Oct 29
Waxing Crescent
Nov 4
First Quarter
Nov 12
Full
Nov 19
Last Quarter
Nov 26
New

Hourly Weather History & Observations

Time (EDT) Temp. Dew Point Humidity Pressure Visibility Wind Dir Wind Speed Gust Speed Precip Events Conditions
12:24 AM 55.9 °F 50.0 °F 80% 30.27 in 10.0 mi Calm Calm - N/A   Overcast
12:36 AM 55.9 °F 50.0 °F 80% 30.27 in 10.0 mi Calm Calm - N/A   Overcast
12:54 AM 55.9 °F 50.0 °F 80% 30.27 in 10.0 mi Calm Calm - N/A   Overcast
1:54 AM 55.9 °F 50.0 °F 80% 30.27 in 10.0 mi Calm Calm - N/A   Overcast
2:54 AM 55.9 °F 51.1 °F 84% 30.27 in 10.0 mi Calm Calm - N/A   Overcast
3:33 AM 55.9 °F 51.1 °F 84% 30.27 in 10.0 mi Calm Calm - N/A   Overcast
3:47 AM 55.0 °F 51.1 °F 86% 30.27 in 8.0 mi Calm Calm - N/A   Overcast
3:54 AM 55.0 °F 52.0 °F 89% 30.26 in 9.0 mi Calm Calm - N/A   Overcast
4:11 AM 55.0 °F 52.0 °F 89% 30.26 in 10.0 mi Calm Calm - N/A   Overcast
4:26 AM 55.0 °F 52.0 °F 89% 30.26 in 8.0 mi NE 3.5 mph - N/A   Overcast
4:34 AM 55.0 °F 52.0 °F 89% 30.26 in 5.0 mi Calm Calm - N/A   Overcast
4:54 AM 55.0 °F 52.0 °F 89% 30.27 in 5.0 mi Calm Calm - N/A   Overcast
5:35 AM 55.0 °F 52.0 °F 89% 30.27 in 4.0 mi Calm Calm - 0.00 in Rain Light Rain
5:47 AM 55.0 °F 52.0 °F 89% 30.27 in 6.0 mi Calm Calm - 0.00 in   Overcast
5:54 AM 55.0 °F 52.0 °F 89% 30.27 in 9.0 mi Calm Calm - 0.00 in   Overcast
6:23 AM 55.0 °F 52.0 °F 89% 30.27 in 4.0 mi Calm Calm - N/A   Overcast
6:54 AM 55.0 °F 52.0 °F 89% 30.27 in 7.0 mi Calm Calm - N/A   Overcast
7:31 AM 54.0 °F 53.1 °F 97% 30.26 in 4.0 mi Calm Calm - 0.00 in Rain Light Rain
7:44 AM 55.0 °F 53.1 °F 93% 30.27 in 3.0 mi Calm Calm - 0.00 in   Overcast
7:54 AM 55.0 °F 53.1 °F 93% 30.27 in 3.0 mi Calm Calm - 0.00 in   Overcast
8:03 AM 55.0 °F 53.1 °F 93% 30.27 in 2.5 mi Calm Calm - 0.00 in Rain Light Rain
8:41 AM 55.9 °F 53.1 °F 90% 30.28 in 2.5 mi Calm Calm - 0.00 in Rain Light Rain
8:49 AM 55.4 °F 53.6 °F 94% 30.29 in 3.0 mi Calm Calm - 0.00 in   Overcast
8:54 AM 55.9 °F 54.0 °F 93% 30.29 in 3.0 mi Calm Calm - 0.00 in   Overcast
9:27 AM 55.9 °F 54.0 °F 93% 30.29 in 4.0 mi Calm Calm - N/A   Overcast
9:46 AM 57.0 °F 54.0 °F 89% 30.30 in 2.0 mi Calm Calm - N/A   Overcast
9:54 AM 57.0 °F 54.0 °F 89% 30.30 in 4.0 mi WNW 3.5 mph - N/A   Overcast
10:54 AM 57.0 °F 55.0 °F 93% 30.30 in 2.5 mi Calm Calm - 0.00 in Rain Light Rain
11:54 AM 59.0 °F 55.9 °F 90% 30.29 in 7.0 mi Calm Calm - 0.01 in   Overcast
12:14 PM 60.1 °F 55.9 °F 86% 30.27 in 10.0 mi Calm Calm - 0.00 in   Overcast
12:21 PM 60.1 °F 55.9 °F 86% 30.28 in 8.0 mi Variable 3.5 mph - 0.00 in Rain Light Rain
12:28 PM 60.1 °F 55.9 °F 86% 30.28 in 10.0 mi Calm Calm - 0.00 in   Overcast
12:54 PM 61.0 °F 55.9 °F 83% 30.27 in 10.0 mi Calm Calm - 0.00 in   Overcast
1:40 PM 61.0 °F 55.9 °F 83% 30.26 in 10.0 mi Calm Calm - 0.01 in   Overcast
1:54 PM 61.0 °F 57.0 °F 87% 30.25 in 10.0 mi Calm Calm - 0.01 in   Overcast
2:22 PM 62.1 °F 57.9 °F 86% 30.25 in 8.0 mi NNE 5.8 mph - 0.00 in Rain Light Rain
2:54 PM 61.0 °F 57.0 °F 87% 30.25 in 10.0 mi Calm Calm - 0.00 in   Overcast
3:17 PM 61.0 °F 57.0 °F 87% 30.25 in 10.0 mi Calm Calm - N/A   Overcast
3:45 PM 61.0 °F 57.0 °F 87% 30.24 in 10.0 mi Calm Calm - N/A   Overcast
3:52 PM 60.8 °F 57.2 °F 88% 30.24 in 10.0 mi Calm Calm - N/A   Overcast
3:54 PM 61.0 °F 57.0 °F 87% 30.24 in 10.0 mi Calm Calm - N/A   Overcast
4:08 PM 62.1 °F 57.0 °F 84% 30.24 in 10.0 mi Calm Calm - N/A   Overcast
4:24 PM 61.0 °F 57.0 °F 87% 30.24 in 10.0 mi Calm Calm - N/A   Overcast
4:54 PM 61.0 °F 57.0 °F 87% 30.25 in 10.0 mi Calm Calm - N/A   Overcast
5:54 PM 61.0 °F 57.0 °F 87% 30.25 in 10.0 mi North 6.9 mph - 0.00 in   Overcast
6:14 PM 60.1 °F 57.0 °F 90% 30.26 in 10.0 mi Calm Calm - N/A   Overcast
6:26 PM 60.1 °F 57.0 °F 90% 30.25 in 10.0 mi Calm Calm - N/A   Overcast
6:54 PM 60.1 °F 57.0 °F 90% 30.26 in 10.0 mi Calm Calm - N/A   Overcast
7:26 PM 60.1 °F 57.0 °F 90% 30.26 in 10.0 mi Calm Calm - N/A   Overcast
7:54 PM 60.1 °F 57.0 °F 90% 30.25 in 10.0 mi NNE 3.5 mph - N/A   Overcast
8:10 PM 59.0 °F 55.9 °F 90% 30.25 in 10.0 mi NE 3.5 mph - N/A   Overcast
8:31 PM 59.0 °F 55.9 °F 90% 30.25 in 10.0 mi Calm Calm - N/A   Overcast
8:54 PM 59.0 °F 55.9 °F 90% 30.26 in 10.0 mi Calm Calm - N/A   Overcast
9:06 PM 59.0 °F 57.0 °F 93% 30.26 in 2.5 mi Calm Calm - N/A   Overcast
9:16 PM 59.0 °F 57.0 °F 93% 30.26 in 1.8 mi Calm Calm - N/A   Overcast
9:24 PM 59.0 °F 57.0 °F 93% 30.26 in 2.0 mi Calm Calm - N/A   Overcast
9:41 PM 59.0 °F 55.9 °F 90% 30.26 in 1.5 mi Calm Calm - N/A   Overcast
9:54 PM 59.0 °F 57.0 °F 93% 30.27 in 1.2 mi Calm Calm - N/A   Overcast
10:54 PM 59.0 °F 57.0 °F 93% 30.27 in 1.0 mi NNE 3.5 mph - N/A   Mist
11:15 PM 59.0 °F 57.0 °F 93% 30.26 in 0.8 mi Calm Calm - N/A   Mist
11:54 PM 59.0 °F 57.0 °F 93% 30.26 in 0.5 mi Calm Calm - N/A Fog Fog